国际通讯卫星 4-F3星 (INTELSAT 4-F3)

导读 | 星芒AI

INTELSAT 4-F3 是一颗由美国洛克希德公司制造的通信卫星,于1974年11月10日发射。它是INTELSAT IV系列卫星之一,主要用于跨大西洋的电视和电话信号传输。卫星搭载12个C波段转发器,支持国际通信服务。尽管发射后不久遭遇太阳能板故障,但通过地面控制调整仍得以部分恢复功能,继续服役多年。INTELSAT 4-F3 在通信卫星发展史上具有重要意义,展示了早期卫星通信的潜力与挑战。

基本信息
目录编号:
5709
目录名称:
INTELSAT 4-F3
国际标识:
1971-116A
轨道中心:
EARTH
卫星名称:
国际通讯卫星 4-F3星
卫星全名:
国际通讯卫星 4-F3星 (INTELSAT 4-F3)
卫星状态:
在轨 (已飞行19672 天)
发射日期:
1971-12-20 UTC
国别 :
(ITSO)
星等 :
--
轨道信息
数据来源 国际轨道数据 AOE轨道数据
星历时间 2025-10-28T17:23:42+0800
21小时前
查看轨道信息
2025-10-24T13:00:00+0800
5天前
查看轨道信息
半长轴 42347.398km 42347.002km
偏心率 0.0008731 0.0008794
轨道倾角 6.960° 6.970°
近地点辐角 117.099° 118.226°
升交点赤经 292.944° 292.980°
平近点角 81.044° 19.585°
近地点 35932.289km 35931.627km
远地点 36006.237km 36006.107km
周期 1445.439分钟 1445.419分钟
每日圈数 0.996237 0.996251
详细信息
卫星平台:
HS-353
平衡模式:
自旋稳定
覆盖范围:
全球
运营商:
国际卫星通信公司
运营商所在国:
美国
制造商(研发单位):
休斯公司
制造商所在国:
美国
使用方式:
暂无
卫星简介
从1965年4月至1984年3月,国际通信卫星组织发射了5代、6种不同性能的卫星共计35颗,除6颗卫星因运载火箭和远地点发动机故障而发射失败外,其余29颗卫星均被送到了预定的静止轨道位置。1984年8月前后,国际通信卫星组织利用部署在大西洋、太平洋、印度洋上空的15颗国际通信卫星,为遍布世界各地170多个国家或地区提供电话、电传、电报、电视和数据传输等电信业务;该卫星已退役。
2D轨道图
3D轨道图
轨道高度分析图
轨道倾角分析图
轨道综合分析图
查看轨道综合分析图